CAPE
0 0 0 0 0 0 0 0 0 59 115 78 110 169 60 59 24 0 758 832 682 765 439 34 21 24 14 0 0 0 6 38 106 197 259 225 110 11 0 0 6 219 579 761 643 490 330 98 3
0 0 0 0 0 0 0 0 0 128 44 116 149 103 123 36 0 499 729 783 779 617 411 35 75 22 3 0 0 13 56 87 108 114 90 36 0 0 0 15 120 453 648 773 697 679 482 259 25
0 0 0 0 0 0 0 0 0 101 109 203 179 73 40 1 70 735 257 768 1024 679 320 73 100 26 8 0 0 11 14 33 69 84 39 4 1 0 43 146 334 503 810 873 829 651 524 448 126
0 0 0 0 0 0 0 0 0 213 207 180 143 85 53 184 342 234 918 918 382 782 316 205 73 11 0 0 0 0 30 36 40 17 2 16 3 0 16 165 318 442 664 933 914 685 490 377 307
0 0 0 0 0 0 0 0 0 6 181 279 181 108 184 118 427 853 1103 1279 376 630 525 335 82 9 0 1 0 2 40 65 57 3 0 8 3 0 0 134 279 290 328 640 878 725 451 121 101
0 0 0 0 0 0 0 0 0 0 117 242 226 120 22 38 594 900 1107 1141 569 475 665 520 137 27 1 17 4 0 15 65 115 66 5 63 69 15 0 50 211 191 147 322 780 789 545 218 89
0 0 0 0 0 0 0 0 0 0 0 208 116 92 188 128 549 833 546 714 625 776 703 749 506 146 64 28 24 6 35 133 121 41 0 3 39 7 0 0 0 76 58 137 384 750 716 482 219
0 0 0 0 0 0 0 0 320 2 16 282 216 109 78 158 819 729 583 353 514 803 868 744 718 430 158 46 16 47 47 115 167 72 0 0 0 0 0 0 0 0 6 135 347 687 783 641 422
0 0 0 0 0 0 0 0 0 0 504 246 365 1108 427 640 965 797 677 397 413 555 812 830 760 743 344 253 190 85 89 83 34 88 37 3 0 0 0 0 0 0 0 18 281 658 766 723 594
0 0 0 0 0 0 0 0 0 92 447 462 938 1328 580 671 1072 1016 771 446 227 259 430 607 830 771 761 585 396 206 196 283 203 127 98 26 0 0 1 0 0 0 0 0 134 489 698 832 722
0 0 0 0 0 0 0 0 0 138 599 679 829 1132 744 736 914 1066 772 520 291 223 188 412 656 759 661 708 613 485 302 293 165 146 177 98 10 8 19 5 26 30 0 0 19 313 707 771 697
0 0 0 0 0 0 0 0 0 1 235 0 248 999 836 703 337 866 937 541 389 350 157 300 542 548 590 819 751 665 406 366 141 181 226 144 30 1 0 0 0 0 0 0 0 3 277 562 681
0 0 0 0 0 0 0 0 0 0 0 0 0 1126 748 304 57 370 1128 793 590 557 242 152 337 306 427 683 737 611 550 316 262 242 286 220 57 0 0 0 0 0 0 0 0 0 0 106 482
0 0 0 0 0 0 0 0 0 0 0 0 0 577 1022 567 323 94 555 1118 780 595 526 186 213 329 423 562 603 509 504 471 337 292 255 323 193 8 0 0 0 10 0 14 7 0 0 0 49
0 0 0 0 0 0 0 0 0 0 0 0 0 82 844 1138 736 500 290 300 895 761 589 540 166 142 188 407 377 375 338 423 372 346 286 389 265 88 0 0 0 107 154 114 70 27 28 4 0
0 0 0 0 0 0 0 0 0 0 0 0 0 0 59 848 1126 766 554 473 456 946 749 459 330 150 155 189 205 194 262 283 286 301 244 294 267 147 41 0 0 46 76 181 92 43 56 29 0
0 0 0 0 0 0 0 0 0 0 0 0 0 0 0 7 806 581 505 419 518 882 911 639 434 161 128 119 152 143 224 132 141 136 83 91 94 115 103 54 67 308 297 241 166 82 54 53 38
0 0 0 0 0 0 0 0 0 0 0 0 0 0 0 0 2 151 169 8 29 303 740 525 677 375 158 174 215 443 372 246 221 210 106 172 143 83 43 57 37 183 339 422 309 248 124 82 89
0 0 0 0 0 0 0 0 0 0 0 0 0 0 0 0 0 0 0 0 0 241 530 553 646 648 326 240 203 555 710 660 490 382 407 257 136 71 7 0 0 16 310 336 364 260 237 203 232
0 0 0 0 0 0 0 0 0 0 0 0 0 0 0 0 0 0 0 0 0 48 749 915 612 757 585 490 417 855 1058 935 967 916 723 431 186 126 69 16 0 0 0 273 409 328 167 53 18
0 0 0 0 0 0 0 0 0 0 0 0 0 0 0 0 0 0 0 0 0 0 27 942 766 732 782 602 704 835 996 914 972 575 539 592 334 281 143 23 0 0 333 371 523 463 84 0 0
0 0 0 0 0 0 0 0 0 0 0 0 0 0 0 0 0 0 0 0 0 0 0 37 1004 985 983 772 950 1143 1278 1138 571 434 497 636 416 234 82 27 0 0 539 536 356 143 41 26 13
0 0 0 0 0 0 0 0 0 0 0 0 0 0 0 0 0 0 0 0 0 0 0 0 439 1187 1241 976 1083 1217 1279 1204 511 349 490 406 140 68 132 114 56 28 435 719 460 415 218 209 10
0 0 0 0 0 0 0 0 0 0 0 0 0 0 0 0 0 0 0 0 0 0 0 0 15 956 1331 1091 1154 1261 1208 1063 433 149 470 200 180 36 63 37 162 502 865 802 578 424 526 474 549
0 0 0 0 0 0 0 0 0 0 0 0 0 0 0 0 0 0 0 0 0 0 0 0 16 781 1451 1104 1152 1246 1304 952 372 32 194 145 310 158 30 0 236 642 897 822 642 462 666 666 548
0 0 0 0 0 0 0 0 0 0 0 0 0 0 0 0 0 0 0 0 0 0 0 0 1 738 1203 1205 1133 1134 1094 872 525 190 326 246 462 401 95 0 178 487 703 815 749 698 796 625 570
0 0 0 0 0 0 0 0 0 0 0 0 0 0 0 0 0 0 0 0 0 0 0 0 25 251 635 1170 1122 987 611 582 505 286 435 573 646 606 295 146 256 652 795 893 911 903 946 687 476
0 0 0 0 0 0 0 0 0 0 0 0 0 0 0 0 0 0 0 0 0 0 0 0 3 8 114 450 1019 1223 872 407 306 203 318 565 665 702 596 445 442 802 1021 1008 996 1056 988 736 296
0 0 0 0 0 0 0 0 0 0 0 0 0 0 0 0 0 0 0 0 0 0 0 0 0 0 4 60 343 792 1260 1285 614 273 445 572 641 698 685 568 642 934 1231 1280 1218 1251 974 637 156
0 0 0 0 0 0 0 0 0 0 0 0 0 0 0 0 0 0 0 0 0 0 0 0 0 0 0 0 17 38 164 693 1120 895 570 420 537 639 738 671 729 929 1212 1324 1386 1024 783 509 15
CIN
-0 -0 -0 -0 -0 -0 -0 -0 -0 -150 -151 -259 -251 -187 -168 -243 -164 -0 -314 -250 -198 -236 -343 -559 -562 -465 -453 -0 -0 -0 -437 -394 -327 -281 -249 -253 -294 -342 -0 -0 -202 -156 -36 -6 -5 -3 -15 -61 -17
-0 -0 -0 -0 -0 -0 -0 -0 -0 -128 -189 -283 -260 -246 -226 -214 -0 -238 -213 -257 -243 -307 -374 -564 -499 -535 -98 -0 -0 -420 -361 -324 -330 -317 -315 -345 -0 -0 -0 -344 -226 -108 -48 -20 -15 -7 -8 -39 -111
-0 -0 -0 -0 -0 -0 -0 -0 -0 -203 -278 -251 -229 -336 -299 -41 -355 -206 -295 -300 -279 -342 -417 -527 -481 -546 -499 -0 -0 -450 -405 -373 -340 -343 -372 -292 -157 -0 -308 -215 -141 -86 -18 -17 -16 -23 -16 -8 -73
-0 -0 -0 -0 -0 -0 -0 -0 -0 -157 -214 -240 -256 -212 -461 -467 -373 -411 -288 -251 -400 -329 -431 -468 -518 -529 -0 -0 -0 -6 -409 -425 -403 -422 -439 -397 -223 -0 -336 -214 -152 -115 -66 -18 -14 -30 -37 -27 -29
-0 -0 -0 -0 -0 -0 -0 -0 -0 -46 -157 -160 -253 -192 -265 -533 -462 -367 -331 -297 -446 -390 -424 -483 -543 -633 -0 -115 -0 -309 -393 -356 -374 -211 -0 -369 -235 -0 -0 -225 -152 -138 -122 -45 -3 -16 -65 -122 -123
-0 -0 -0 -0 -0 -0 -0 -0 -0 -0 -208 -198 -218 -256 -229 -714 -398 -370 -344 -327 -420 -418 -378 -392 -507 -563 -310 -511 -251 -0 -443 -377 -333 -389 -425 -338 -319 -372 -0 -277 -167 -153 -154 -78 -4 -2 -22 -86 -117
-0 -0 -0 -0 -0 -0 -0 -0 -0 -0 -0 -193 -317 -194 -294 -509 -391 -386 -462 -416 -425 -370 -348 -327 -351 -454 -495 -547 -471 -477 -450 -367 -347 -382 -0 -91 -353 -148 -0 -0 -0 -204 -198 -151 -74 -9 -9 -33 -74
-0 -0 -0 -0 -0 -0 -0 -0 -198 -12 -137 -264 -278 -161 -182 -441 -359 -362 -399 -482 -415 -361 -330 -340 -302 -360 -440 -498 -487 -454 -432 -356 -321 -354 -0 -0 -0 -0 -0 -0 -0 -0 -232 -162 -91 -31 -10 -18 -44
-0 -0 -0 -0 -0 -0 -0 -0 -0 -0 -118 -225 -215 -135 -269 -392 -348 -374 -410 -486 -473 -421 -348 -336 -313 -274 -376 -403 -394 -425 -417 -398 -374 -327 -339 -111 -0 -0 -0 -0 -0 -0 -0 -216 -118 -45 -25 -18 -32
-0 -0 -0 -0 -0 -0 -0 -0 -0 -75 -101 -102 -76 -160 -383 -363 -344 -327 -357 -392 -493 -504 -459 -403 -330 -312 -302 -312 -340 -390 -366 -347 -358 -339 -329 -352 -0 -0 -148 -0 -0 -0 -0 -33 -159 -68 -30 -10 -17
-0 -0 -0 -0 -0 -0 -0 -0 -0 -96 -45 -56 -27 -82 -274 -301 -341 -302 -349 -356 -425 -479 -499 -473 -395 -350 -344 -309 -306 -329 -368 -351 -368 -359 -324 -328 -165 -343 -325 -338 -283 -265 -0 -0 -139 -99 -32 -15 -18
-0 -0 -0 -0 -0 -0 -0 -0 -0 -38 -41 -0 -82 -103 -158 -191 -294 -275 -268 -309 -353 -419 -497 -501 -438 -420 -384 -311 -291 -321 -344 -344 -386 -362 -314 -316 -297 -239 -0 -0 -0 -0 -0 -0 -0 -158 -94 -45 -32
-0 -0 -0 -0 -0 -0 -0 -0 -0 -0 -0 -0 -0 -68 -112 -155 -310 -344 -273 -312 -351 -324 -423 -498 -476 -474 -409 -347 -323 -342 -325 -366 -381 -352 -310 -293 -314 -0 -0 -0 -0 -0 -0 -0 -0 -0 -0 -127 -58
-0 -0 -0 -0 -0 -0 -0 -0 -0 -0 -0 -0 -0 -51 -91 -108 -162 -380 -260 -214 -297 -330 -332 -429 -467 -453 -434 -363 -342 -360 -337 -336 -332 -317 -300 -282 -273 -242 -0 -0 -0 -137 -0 -139 -122 -0 -0 -0 -182
-0 -0 -0 -0 -0 -0 -0 -0 -0 -0 -0 -0 -0 -210 -81 -93 -148 -112 -188 -185 -228 -263 -322 -306 -414 -475 -437 -383 -350 -365 -348 -329 -303 -294 -289 -257 -249 -256 -0 -0 -0 -163 -149 -140 -158 -200 -237 -156 -0
-0 -0 -0 -0 -0 -0 -0 -0 -0 -0 -0 -0 -0 -0 -234 -100 -94 -113 -156 -167 -199 -250 -251 -358 -406 -488 -490 -414 -401 -392 -359 -336 -314 -300 -277 -245 -227 -229 -268 -0 -0 -193 -172 -120 -156 -178 -183 -193 -0
-0 -0 -0 -0 -0 -0 -0 -0 -0 -0 -0 -0 -0 -0 -0 -133 -109 -132 -143 -153 -176 -200 -228 -249 -348 -451 -477 -509 -462 -412 -350 -367 -346 -364 -341 -305 -288 -264 -244 -256 -198 -97 -109 -106 -128 -155 -159 -153 -152
-0 -0 -0 -0 -0 -0 -0 -0 -0 -0 -0 -0 -0 -0 -0 -0 -6 -131 -148 -348 -337 -261 -250 -255 -263 -307 -395 -455 -402 -293 -284 -273 -278 -264 -341 -265 -250 -321 -346 -283 -252 -104 -83 -86 -112 -91 -144 -151 -128
-0 -0 -0 -0 -0 -0 -0 -0 -0 -0 -0 -0 -0 -0 -0 -0 -0 -0 -0 -0 -0 -328 -279 -241 -251 -266 -297 -301 -313 -232 -179 -183 -197 -216 -207 -218 -309 -373 -444 -0 -0 -223 -70 -67 -82 -81 -75 -99 -127
-0 -0 -0 -0 -0 -0 -0 -0 -0 -0 -0 -0 -0 -0 -0 -0 -0 -0 -0 -0 -0 -114 -301 -295 -256 -267 -274 -267 -308 -236 -201 -205 -182 -165 -147 -195 -271 -297 -346 -409 -0 -0 -0 -77 -51 -59 -80 -135 -121
-0 -0 -0 -0 -0 -0 -0 -0 -0 -0 -0 -0 -0 -0 -0 -0 -0 -0 -0 -0 -0 -0 -125 -308 -277 -264 -297 -348 -352 -302 -237 -205 -141 -135 -132 -138 -182 -212 -272 -326 -0 -0 -80 -58 -44 -58 -102 -0 -0
-0 -0 -0 -0 -0 -0 -0 -0 -0 -0 -0 -0 -0 -0 -0 -0 -0 -0 -0 -0 -0 -0 -0 -464 -338 -298 -336 -358 -272 -204 -132 -95 -142 -109 -134 -113 -154 -187 -289 -354 -0 -0 -71 -63 -82 -130 -159 -103 -110
-0 -0 -0 -0 -0 -0 -0 -0 -0 -0 -0 -0 -0 -0 -0 -0 -0 -0 -0 -0 -0 -0 -0 -0 -451 -330 -349 -328 -250 -214 -175 -140 -148 -153 -122 -134 -175 -227 -202 -212 -250 -261 -105 -69 -92 -92 -95 -87 -52
-0 -0 -0 -0 -0 -0 -0 -0 -0 -0 -0 -0 -0 -0 -0 -0 -0 -0 -0 -0 -0 -0 -0 -0 -165 -390 -345 -343 -290 -231 -187 -173 -193 -221 -133 -144 -180 -244 -244 -225 -162 -126 -88 -88 -94 -93 -84 -78 -71
-0 -0 -0 -0 -0 -0 -0 -0 -0 -0 -0 -0 -0 -0 -0 -0 -0 -0 -0 -0 -0 -0 -0 -0 -197 -453 -301 -346 -319 -265 -190 -200 -174 -212 -152 -134 -131 -129 -151 -0 -172 -142 -122 -108 -97 -96 -83 -81 -75
-0 -0 -0 -0 -0 -0 -0 -0 -0 -0 -0 -0 -0 -0 -0 -0 -0 -0 -0 -0 -0 -0 -0 -0 -204 -409 -278 -301 -309 -301 -249 -235 -196 -202 -150 -131 -107 -113 -155 -0 -179 -150 -138 -116 -111 -101 -85 -99 -93
-0 -0 -0 -0 -0 -0 -0 -0 -0 -0 -0 -0 -0 -0 -0 -0 -0 -0 -0 -0 -0 -0 -0 -0 -664 -507 -378 -276 -252 -294 -380 -293 -201 -216 -175 -119 -105 -126 -164 -149 -153 -155 -137 -122 -110 -93 -74 -97 -103
-0 -0 -0 -0 -0 -0 -0 -0 -0 -0 -0 -0 -0 -0 -0 -0 -0 -0 -0 -0 -0 -0 -0 -0 -639 -597 -561 -399 -228 -218 -297 -346 -270 -211 -152 -116 -115 -115 -136 -142 -144 -137 -130 -120 -110 -89 -88 -92 -131
-0 -0 -0 -0 -0 -0 -0 -0 -0 -0 -0 -0 -0 -0 -0 -0 -0 -0 -0 -0 -0 -0 -0 -0 -0 -0 -167 -477 -397 -280 -166 -158 -209 -206 -162 -140 -138 -119 -99 -121 -127 -146 -117 -123 -101 -79 -93 -85 -132
-0 -0 -0 -0 -0 -0 -0 -0 -0 -0 -0 -0 -0 -0 -0 -0 -0 -0 -0 -0 -0 -0 -0 -0 -0 -0 -0 -0 -425 -482 -425 -241 -171 -131 -139 -148 -134 -150 -118 -123 -128 -124 -141 -128 -89 -81 -92 -93 -44
Wind_Speed
18 18 15 14 13 13 13 16 14 12 11 12 9 12 11 17 13 14 13 9 7 7 9 14 16 16 17 17 16 17 18 19 19 19 19 20 20 21 21 22 22 23 23 23 24 24 25 24 24
17 14 15 14 12 12 12 16 17 9 13 11 9 15 14 17 14 16 20 21 8 8 6 13 15 17 17 17 18 17 17 17 17 17 17 17 17 18 19 19 20 20 21 21 22 22 23 23 23
14 16 14 12 13 13 13 16 19 12 10 9 10 15 15 17 14 21 22 29 20 10 9 15 15 16 17 17 17 17 16 16 15 15 16 15 16 17 17 17 18 18 18 19 19 20 20 21 21
14 15 14 14 12 13 15 17 18 9 10 9 12 15 15 15 19 22 23 24 5 8 10 15 14 12 15 16 16 16 16 15 15 14 15 14 14 14 15 15 15 16 16 16 16 17 18 18 19
14 14 13 14 16 15 16 20 14 6 8 7 10 16 13 13 18 18 19 18 19 8 8 15 17 18 17 16 15 14 13 13 13 13 12 12 12 12 13 13 13 14 14 14 14 14 15 16 17
14 14 13 12 13 16 19 19 12 5 7 10 10 15 12 12 12 14 13 14 17 16 14 12 14 13 13 11 10 11 11 11 10 10 10 10 10 10 11 11 12 12 13 12 12 12 13 14 15
13 14 11 10 11 15 18 18 9 3 3 8 10 11 14 8 10 8 7 5 5 5 8 7 8 9 8 9 11 11 10 10 9 9 8 8 8 8 9 9 10 10 11 11 11 10 11 12 13
12 13 12 12 10 13 18 16 13 6 3 10 7 12 18 6 7 9 10 8 3 2 3 6 6 5 8 8 9 9 9 8 7 6 6 6 6 6 7 8 9 9 10 10 10 9 9 10 11
12 14 13 13 11 14 18 19 14 13 7 8 7 16 15 10 11 10 6 4 5 3 2 2 3 3 3 4 7 8 10 7 5 5 4 5 6 6 7 7 8 9 9 9 9 9 8 9 10
14 14 14 15 13 16 22 20 21 10 6 9 5 13 9 11 11 7 10 13 9 5 4 3 4 3 3 4 4 3 2 5 3 4 4 4 5 5 7 7 6 7 8 9 10 10 9 10 11
13 15 16 18 19 20 20 21 15 7 5 7 5 5 10 11 7 5 9 10 10 7 9 7 3 2 5 3 1 1 2 1 2 3 3 4 5 5 4 7 7 6 8 10 10 11 11 12 11
17 16 15 20 22 20 19 15 16 9 8 13 15 7 7 7 5 8 12 10 6 7 5 4 4 3 5 3 2 3 1 2 2 1 2 3 4 8 5 5 3 5 6 7 10 11 13 13 12
16 18 18 21 27 25 18 14 13 9 10 17 11 8 5 2 1 3 2 1 3 9 7 7 5 4 4 4 3 4 2 3 2 1 1 1 2 2 3 1 2 4 7 7 9 9 11 10 13
18 21 23 20 22 21 18 17 12 12 12 16 12 4 5 9 4 2 3 3 6 5 8 5 6 6 6 6 5 5 5 6 4 1 3 0 1 1 1 2 2 3 4 5 7 8 12 11 13
22 25 24 20 19 20 16 20 17 15 13 17 15 14 6 8 12 7 8 6 9 6 5 9 7 8 8 7 7 8 7 5 3 3 2 2 3 1 1 3 1 2 3 3 6 6 7 9 11
25 24 25 19 18 19 16 24 21 19 18 17 15 14 12 10 9 8 25 8 7 10 7 8 8 9 10 10 9 9 8 6 5 5 5 5 5 3 2 2 3 5 5 3 4 8 8 8 10
23 25 24 22 17 19 18 22 18 25 20 12 12 12 11 13 12 13 9 13 9 10 8 8 9 11 12 10 10 10 10 10 10 11 8 8 6 5 5 5 6 8 7 4 5 7 7 10 9
18 18 22 22 17 22 20 24 23 24 17 15 12 15 17 14 9 10 12 12 10 12 10 9 8 9 10 11 12 14 16 13 13 11 11 10 7 5 6 6 6 10 9 7 6 8 9 10 9
17 20 21 26 22 24 24 22 24 21 18 15 17 20 21 24 27 29 29 27 23 17 12 9 9 9 9 11 11 16 14 12 12 10 11 10 10 8 7 7 8 7 3 7 10 10 10 13 12
20 24 26 25 24 19 22 22 20 18 17 18 19 22 24 25 26 25 31 30 30 26 21 17 12 12 12 12 12 16 14 16 15 12 12 10 9 7 7 7 7 5 5 6 7 8 11 12 13
23 21 22 19 21 20 20 23 21 17 18 19 20 20 22 23 26 28 30 33 36 26 23 19 16 15 14 13 12 15 17 21 19 19 17 11 10 10 10 8 5 5 6 3 4 7 9 10 12
28 19 21 19 20 24 20 26 21 17 19 21 22 22 23 24 26 27 29 32 37 44 27 22 22 19 17 15 14 13 13 13 15 12 12 11 10 9 8 5 2 3 2 3 4 5 8 10 11
25 22 22 22 22 21 23 24 21 20 21 22 23 23 25 26 28 30 32 33 34 36 24 20 22 22 19 17 17 15 15 15 15 13 12 11 11 9 8 4 3 2 1 1 2 4 7 10 11
23 23 23 22 22 29 23 22 24 21 20 21 22 24 26 27 29 30 32 33 34 34 30 23 21 22 21 19 18 17 15 15 13 14 12 10 9 9 6 3 1 0 1 2 2 6 8 9 11
19 22 30 33 32 34 20 26 24 18 21 22 24 25 27 28 29 31 33 34 34 33 27 22 21 22 23 21 20 18 16 15 14 12 10 9 9 10 8 5 3 2 2 0 3 6 8 9 9
21 21 26 36 36 35 26 30 23 19 20 21 23 25 27 30 30 31 32 32 31 31 27 21 21 24 23 23 26 20 18 16 14 13 11 11 11 9 9 8 6 5 4 4 4 6 8 9 9
21 25 21 27 31 35 31 26 21 19 22 24 26 28 30 31 32 32 32 32 31 30 28 24 21 21 21 21 23 26 24 18 16 15 15 14 14 14 13 11 10 9 8 7 6 7 8 8 9
21 16 23 24 35 40 33 30 26 24 27 29 31 32 32 32 33 34 34 34 32 31 29 25 22 21 21 22 23 25 26 23 21 17 19 17 18 18 17 16 14 14 12 11 9 10 11 10 11
26 25 25 25 27 35 39 34 21 23 27 30 32 34 35 34 35 35 35 35 34 33 31 29 26 25 23 22 25 28 30 28 26 23 23 20 20 20 21 21 19 18 17 16 14 13 12 12 12
26 28 27 30 32 31 33 37 21 23 27 31 34 35 36 37 38 37 37 36 35 34 33 31 30 28 26 23 22 26 29 29 29 29 28 27 25 25 27 27 25 24 23 20 18 16 14 13 13
Wind_Direction
270 271 282 280 309 317 319 335 340 347 354 333 18 4 43 357 28 16 62 106 203 174 125 112 109 105 100 94 87 85 85 86 84 84 82 81 80 79 78 76 74 73 72 72 72 72 72 64 59
278 281 276 284 302 305 312 327 331 356 336 345 356 1 7 360 12 29 95 114 182 136 140 114 112 109 106 100 97 92 88 85 84 83 80 78 75 74 74 72 71 72 73 74 75 76 75 72 64
291 278 291 301 297 298 300 322 321 337 345 354 360 359 23 22 36 110 115 131 201 207 122 115 113 111 109 106 103 98 92 88 84 81 81 76 72 71 71 69 67 67 68 70 74 75 75 75 73
290 289 295 290 303 303 303 314 319 350 348 351 352 354 26 97 108 137 122 121 167 209 119 118 116 111 111 111 106 101 99 95 91 85 83 79 74 70 69 65 63 63 64 66 71 72 69 69 71
289 289 293 293 290 302 314 308 311 337 351 2 7 355 30 90 174 118 111 115 122 135 131 119 120 120 119 116 110 104 97 92 91 87 83 76 69 63 62 59 56 54 51 52 55 60 63 61 59
289 292 298 293 301 305 308 306 308 318 325 334 352 342 28 353 78 99 100 113 124 124 122 119 122 120 120 116 110 106 102 97 88 81 74 66 63 59 55 51 47 43 38 37 39 46 51 50 46
295 289 293 305 307 320 315 303 322 356 333 331 359 354 360 35 92 72 78 96 136 132 123 122 121 123 120 117 118 116 107 101 94 83 72 70 58 49 44 40 39 35 32 32 34 39 42 42 40
304 294 290 294 308 321 319 320 328 335 337 340 352 348 337 33 79 92 94 106 210 198 139 128 130 133 122 119 126 122 115 106 88 70 68 67 58 43 33 27 22 22 20 18 21 30 36 34 29
305 293 283 287 300 314 317 315 322 318 327 330 343 335 349 86 103 94 82 252 240 235 217 211 166 149 133 124 127 128 130 120 98 73 64 54 19 19 12 10 10 5 4 11 14 16 21 19 18
295 292 285 286 296 308 310 314 308 330 343 326 2 346 34 96 116 97 114 133 141 155 156 190 246 161 141 129 134 124 110 112 79 40 60 37 29 12 353 356 6 7 357 356 355 354 353 355 355
303 293 289 284 294 302 309 313 333 335 337 344 112 34 93 112 98 92 125 140 145 146 139 143 159 176 144 146 166 250 283 58 39 25 21 31 10 12 27 347 355 2 350 345 345 345 341 336 341
296 300 302 294 296 304 303 323 317 331 335 331 305 322 122 123 114 128 135 139 146 157 164 167 181 168 148 148 174 280 204 302 325 37 13 9 20 338 350 353 25 2 359 355 345 338 334 332 334
307 301 303 294 283 287 303 305 314 320 331 321 319 303 168 146 133 134 310 110 159 165 172 180 194 202 191 196 244 276 252 288 309 329 122 97 30 33 5 59 71 16 358 357 348 344 332 342 328
308 304 298 303 299 301 298 299 305 312 319 312 313 286 210 187 199 285 221 185 168 188 183 189 206 239 249 251 255 272 280 293 299 245 174 226 3 4 138 151 135 21 13 7 356 351 331 335 330
304 297 300 302 304 300 304 293 297 309 315 309 308 301 274 213 281 211 257 251 284 259 242 194 214 221 216 235 247 275 278 282 239 212 228 279 318 298 221 186 191 352 358 3 352 1 8 350 343
303 301 295 303 304 304 302 294 301 303 298 298 301 301 291 272 249 247 213 255 251 279 217 253 255 223 211 206 249 274 274 258 257 277 298 301 312 295 272 279 319 337 338 330 350 343 348 351 343
304 293 294 299 313 310 305 303 311 312 304 290 297 299 293 285 269 269 248 205 220 208 254 246 242 219 212 225 245 267 285 277 289 299 300 305 308 301 306 300 319 336 335 329 329 343 345 339 342
318 310 301 293 307 314 309 306 313 321 319 297 312 307 301 298 260 242 237 231 232 265 263 265 237 233 239 258 264 273 289 284 290 293 298 305 305 299 303 303 316 330 338 344 350 342 348 346 358
316 315 312 293 298 303 303 308 305 324 332 315 306 308 304 299 295 284 279 279 277 275 270 253 246 242 244 255 259 274 282 282 286 287 297 300 306 307 304 309 317 326 330 332 334 338 337 337 346
311 309 302 300 299 304 304 306 313 322 335 329 321 316 313 309 303 305 284 282 276 274 272 270 248 249 236 246 259 278 285 288 292 293 296 300 300 303 304 305 312 314 319 313 331 339 334 337 339
306 309 310 303 305 308 305 302 306 317 329 330 330 328 326 319 307 301 298 285 274 275 267 260 247 244 242 251 259 279 289 287 288 292 293 296 298 306 310 308 301 310 325 335 337 332 339 348 350
297 311 312 309 304 298 306 297 304 313 319 325 322 323 322 320 318 312 306 298 285 270 272 257 257 248 246 238 241 248 271 274 282 283 289 296 298 308 320 311 285 318 347 3 14 5 354 359 359
297 307 306 305 300 300 299 301 302 307 312 317 321 323 321 320 319 317 316 310 302 290 281 254 250 248 244 235 239 249 269 276 281 282 281 289 298 303 316 314 290 293 301 23 47 14 359 352 359
304 302 306 305 300 290 297 297 299 303 307 316 322 323 323 323 324 326 326 324 319 310 292 276 252 241 241 233 238 241 251 267 272 278 272 270 286 289 297 316 293 173 129 118 5 338 342 350 354
302 300 292 287 285 287 296 294 296 305 309 313 318 321 323 326 328 328 329 329 331 328 311 290 269 255 250 242 241 240 245 256 252 258 258 246 266 273 263 261 255 224 188 229 322 326 328 339 355
297 297 291 286 283 286 291 287 291 304 314 317 319 321 324 324 326 329 330 332 335 343 334 310 284 270 263 257 258 249 252 255 247 250 253 244 250 246 249 243 247 245 250 274 298 314 321 332 344
298 293 298 292 289 283 285 292 296 301 307 312 317 319 320 322 322 322 325 330 331 338 343 331 311 290 279 268 263 263 264 255 239 253 255 254 250 255 247 242 241 247 249 252 268 291 307 319 331
300 302 296 295 283 278 283 285 287 295 301 307 311 315 317 318 320 321 322 323 323 321 326 334 333 315 299 285 273 271 272 268 265 260 256 250 252 250 250 248 244 244 249 255 261 277 293 302 314
297 294 295 294 289 285 284 286 297 302 306 308 311 313 314 315 316 319 320 320 320 319 317 321 323 319 313 300 289 284 279 276 272 269 267 258 254 248 247 252 252 251 249 254 256 266 276 286 299
293 293 290 286 288 288 289 288 299 308 310 311 310 312 313 313 315 318 318 318 315 315 315 316 313 312 311 311 306 295 289 285 279 275 271 268 263 260 257 258 259 256 254 252 251 259 267 273 284